Zurück zum Katalog

SL-8 R/B

AktivLEO
NORAD 11870·ROCKET BODY·🇷🇺 Russia

Gestartet Jul 1, 1980 von Plesetsk Cosmodrome

Loading…

Nächste Überflüge (nächste 24 Stunden)

TLE

AktuellSource: Space-Track

Epoche: Sep 14, 2026, 15:21 UTC

1 11870U 80056B   26257.63993483  .00000081  00000-0  35152-4 0  9992
2 11870  74.0520 122.2430 0016706 311.6317  48.3405 14.38460899396063

Verfolge SL-8 R/B in Echtzeit mit AllMySat

Download on the App Store